TimeEDT,TemperatureF,Dew PointF,Humidity,Sea Level PressureIn,VisibilityMPH,Wind Direction,Wind SpeedMPH,Gust SpeedMPH,PrecipitationIn,Events,Conditions,WindDirDegrees,DateUTC
12:53 AM,61.0,50.0,67,30.17,10.0,East,8.1,-,N/A,,Clear,100,2013-03-10 05:53:00
1:53 AM,61.0,51.1,70,30.15,10.0,East,6.9,-,N/A,,Clear,100,2013-03-10 06:53:00
3:53 AM,60.1,52.0,75,30.13,10.0,East,6.9,-,N/A,,Clear,90,2013-03-10 07:53:00
4:53 AM,60.1,53.1,78,30.14,10.0,East,8.1,-,N/A,,Clear,90,2013-03-10 08:53:00
5:53 AM,60.1,54.0,80,30.13,10.0,East,5.8,-,N/A,,Clear,90,2013-03-10 09:53:00
6:53 AM,60.1,54.0,80,30.14,10.0,ENE,5.8,-,N/A,,Clear,70,2013-03-10 10:53:00
7:53 AM,60.8,53.6,77,30.15,10.0,East,5.8,-,N/A,,Clear,100,2013-03-10 11:53:00
8:53 AM,62.1,54.0,75,30.17,10.0,East,5.8,-,N/A,,Clear,80,2013-03-10 12:53:00
9:53 AM,63.0,54.0,72,30.17,10.0,East,6.9,-,N/A,,Clear,80,2013-03-10 13:53:00
10:53 AM,68.0,53.1,59,30.17,10.0,East,9.2,-,N/A,,Clear,90,2013-03-10 14:53:00
11:53 AM,72.0,52.0,49,30.13,10.0,ESE,16.1,25.3,N/A,,Clear,110,2013-03-10 15:53:00
12:53 PM,75.0,52.0,44,30.13,10.0,ESE,13.8,21.9,N/A,,Clear,120,2013-03-10 16:53:00
1:53 PM,77.0,52.0,42,30.11,10.0,East,11.5,24.2,N/A,,Clear,90,2013-03-10 17:53:00
2:53 PM,77.0,52.0,42,30.09,10.0,East,9.2,18.4,N/A,,Partly Cloudy,90,2013-03-10 18:53:00
3:53 PM,79.0,53.1,40,30.07,10.0,East,12.7,-,N/A,,Partly Cloudy,80,2013-03-10 19:53:00
4:53 PM,80.1,53.1,39,30.06,10.0,Variable,6.9,-,N/A,,Partly Cloudy,0,2013-03-10 20:53:00
5:53 PM,75.0,53.1,46,30.06,10.0,WSW,8.1,-,N/A,,Clear,250,2013-03-10 21:53:00
6:53 PM,73.0,52.0,48,30.06,10.0,WSW,4.6,-,N/A,,Partly Cloudy,250,2013-03-10 22:53:00
7:53 PM,66.9,55.0,66,30.09,10.0,NNW,9.2,-,N/A,,Mostly Cloudy,330,2013-03-10 23:53:00
8:53 PM,66.0,55.9,70,30.10,10.0,North,4.6,-,N/A,,Overcast,350,2013-03-11 00:53:00
9:53 PM,66.0,55.9,70,30.12,10.0,NNE,4.6,-,N/A,,Overcast,20,2013-03-11 01:53:00
10:53 PM,66.0,57.0,73,30.12,10.0,NE,5.8,-,N/A,,Overcast,50,2013-03-11 02:53:00
11:53 PM,66.0,55.0,68,30.12,10.0,ESE,9.2,-,N/A,,Overcast,120,2013-03-11 03:53:00
12:53 AM,62.1,55.0,78,30.12,10.0,ESE,3.5,-,N/A,,Clear,110,2013-03-11 04:53:00